Regional Weather Roundup
Issued by NWS Memphis, TN

Home | Current Version | Previous Version | Text Only | Print | Product List | Glossary On
Versions: 1 2 3 4 5 6 7 8 9 10 11 12 13 14 15 16 17 18 19 20 21 22 23 24 25 26 27 28 29 30 31 32 33 34 35 36 37 38 39 40 41 42 43 44 45 46 47 48 49 50
000
ASUS44 KMEG 120800
RWRMEG
MEMPHIS CWA HOURLY WEATHER ROUNDUP
NATIONAL WEATHER SERVICE MEMPHIS TN
300 AM CDT SAT JUL 12 2014

...WEST TENNESSEE...

CITY           SKY/WX    TMP DP  RH WIND       PRES   REMARKS
MEMPHIS INTL   CLEAR     75  72  90 CALM      30.13F
NWS MEMPHIS      N/A     72 N/A N/A MISG        N/A
JACKSON        CLEAR     68  66  93 CALM      30.14F FOG
LEXINGTON      CLEAR     66  66 100 CALM      30.14S
DYERSBURG      CLEAR     72  63  73 CALM      30.14S
UNION CITY     CLEAR     70  70 100 CALM      30.13S


...EASTERN ARKANSAS...

CITY           SKY/WX    TMP DP  RH WIND       PRES   REMARKS
JONESBORO      PTCLDY    73  71  93 CALM      30.12F
WEST MEMPHIS   CLEAR     73  73 100 CALM      30.12S FOG
BATESVILLE     CLEAR     75  72  88 CALM      30.13S
WALNUT RIDGE   CLEAR     75  72  88 SW5       30.12F
BLYTHEVILLE    CLEAR     74  72  93 S3        30.13S
PINE BLUFF     CLEAR     73  71  93 CALM      30.14S
MONTICELLO     CLEAR     71  69  93 W3        30.13F FOG


...NORTH MISSISSIPPI...

CITY           SKY/WX    TMP DP  RH WIND       PRES   REMARKS
TUPELO         CLEAR     73  70  90 CALM      30.13S
OLIVE BRANCH   CLEAR     72 N/A N/A CALM      30.14S
CLARKSDALE     CLEAR     72  72 100 CALM      30.13F
GREENWOOD      CLEAR     73  72  96 CALM      30.12F FOG
STARKVILLE     CLOUDY    70  70 100 CALM      30.13S FOG
GOLDEN TRIANGL CLEAR     73  70  88 NW5       30.13S


...SOUTHEAST MISSOURI...

CITY           SKY/WX    TMP DP  RH WIND       PRES   REMARKS
WEST PLAINS    PTCLDY    74  72  93 SW5       30.16F
POPLAR BLUFF   CLEAR     74  70  87 CALM      30.11F FOG
CAPE GIRARDEAU PTCLDY    74  68  81 CALM      30.13S


...NORTHWEST ALABAMA...

CITY           SKY/WX    TMP DP  RH WIND       PRES   REMARKS
MUSCLE SHOALS  CLEAR     69  66  90 CALM      30.14F


...MIDDLE TENNESSEE...

CITY           SKY/WX    TMP DP  RH WIND       PRES   REMARKS
NASHVILLE      CLEAR     70  65  84 CALM      30.16S
CLARKSVILLE    CLEAR     67  64  90 CALM      30.15S
COLUMBIA       CLEAR     70  68  94 CALM      30.14F


...WESTERN KENTUCKY...

CITY           SKY/WX    TMP DP  RH WIND       PRES   REMARKS
PADUCAH        PTCLDY    71  67  87 CALM      30.13S


...CENTRAL ARKANSAS...

CITY           SKY/WX    TMP DP  RH WIND       PRES   REMARKS
LITTLE ROCK    PTCLDY    75  71  87 CALM      30.14S


SKY/WX REPORTED AS FAIR MEANS FEW OR NO CLOUDS BELOW
12 THOUSAND FEET.



USA.gov is the U.S. government's official web portal to all federal, state and local government web resources and services.